Theta_e
316 320 321 319 318 321 320 320 315 311 309 309 312 314 313 317 318 318 325 327 327 332 331 328 329 332 333 333 335 329 330 329 329 332 331 331 330 328 327 329 328 327 329 330 331 330 330 327 326 326 331 328 327 327
311 317 319 320 318 320 321 320 316 312 308 308 309 310 312 316 318 318 326 326 325 327 332 327 327 328 328 329 331 330 332 333 333 328 327 330 329 331 332 335 331 330 331 334 335 334 328 325 328 329 327 327 326 326
309 313 317 320 319 319 321 321 317 312 308 308 308 308 312 315 317 318 322 325 325 330 330 329 330 328 327 327 327 332 330 331 330 330 329 330 332 330 331 331 333 330 329 327 329 328 327 325 328 328 326 325 325 325
307 310 314 318 320 319 320 321 317 312 308 308 308 308 310 314 316 318 322 325 326 327 331 329 327 328 327 326 326 326 328 326 327 328 328 328 328 327 328 328 327 329 328 327 329 330 327 326 326 326 326 326 325 324
306 308 312 316 319 319 320 320 317 311 308 308 308 308 310 314 315 318 320 324 326 327 331 329 327 327 326 326 325 326 327 328 328 328 328 328 327 326 326 326 326 327 326 328 329 329 327 328 327 325 326 326 326 326
306 307 310 314 318 319 320 320 316 310 307 307 308 308 311 314 315 320 329 326 326 325 328 329 326 328 326 326 326 327 327 327 327 328 327 327 326 325 326 327 327 326 326 325 326 326 326 328 327 327 326 326 327 327
305 306 309 312 317 319 319 320 316 309 307 307 308 308 311 314 316 324 327 325 320 323 328 330 329 328 326 326 327 327 326 328 328 328 327 327 327 324 325 328 328 326 325 324 324 324 326 326 328 328 326 325 325 325
305 306 307 311 315 318 319 319 314 308 307 307 308 309 312 315 318 321 322 321 319 324 325 331 332 330 326 327 326 327 327 327 327 327 328 328 327 327 327 326 325 324 324 325 324 324 326 327 326 325 322 321 322 324
305 305 307 310 315 318 319 318 311 307 306 308 310 313 317 319 324 325 322 320 321 324 330 329 332 333 328 328 330 329 327 328 328 329 328 326 327 329 327 327 326 325 325 326 326 325 325 326 325 323 322 320 321 323
305 305 307 310 315 317 318 315 308 306 308 311 316 321 324 325 322 321 322 326 327 326 325 329 328 329 325 327 328 327 327 327 329 328 327 329 329 326 326 325 326 325 325 326 327 327 327 326 325 323 322 320 320 322
305 305 307 311 314 316 316 312 307 307 312 318 321 323 325 321 323 325 327 327 327 326 326 325 326 327 326 328 329 327 328 328 328 328 325 328 329 328 326 326 327 326 326 325 326 327 326 325 324 323 322 320 319 320
305 305 307 311 314 315 315 308 306 312 319 321 324 324 324 325 326 327 328 327 327 327 327 327 326 329 328 328 330 327 326 327 328 328 326 328 333 331 329 327 327 327 325 326 326 326 324 322 321 321 321 319 318 319
305 306 308 312 314 315 312 307 307 315 319 322 324 325 326 326 329 327 328 328 328 327 328 328 329 329 328 327 328 327 327 328 327 327 327 330 332 329 329 328 328 327 327 326 326 324 323 322 321 320 321 319 319 319
305 306 310 312 314 313 308 306 309 315 320 326 326 329 327 327 326 326 326 326 327 327 327 327 328 329 326 327 327 328 326 327 327 327 327 329 332 331 330 330 330 329 327 326 324 322 322 322 321 321 320 319 319 319
306 308 311 312 313 309 306 306 311 317 322 326 325 334 326 326 327 326 326 327 326 326 327 330 331 329 329 327 326 326 327 326 326 327 328 335 334 335 333 332 329 328 327 326 322 322 322 322 322 322 320 319 318 318
308 310 309 311 309 307 307 311 315 319 322 325 325 326 326 327 327 327 327 327 326 327 327 327 330 327 328 327 326 326 325 326 327 328 330 335 338 337 334 331 330 328 327 325 322 322 322 322 321 321 319 319 319 319
309 307 309 309 306 307 312 315 319 323 323 323 324 324 325 327 328 329 326 329 327 328 329 332 330 328 327 327 326 326 326 326 328 329 331 335 337 337 335 332 330 328 324 322 322 323 323 322 320 319 321 321 322 322
307 308 309 306 309 312 314 317 320 322 323 322 323 324 324 325 326 326 327 328 333 330 331 330 328 328 328 326 326 326 326 330 327 330 332 337 338 336 333 333 330 326 324 323 323 323 322 322 321 321 321 322 323 324
307 307 306 310 312 314 316 317 319 321 320 320 321 322 324 324 325 326 328 328 328 328 331 334 330 330 329 326 328 327 331 328 332 335 333 335 336 336 333 330 329 326 324 323 323 323 322 322 322 322 322 322 322 322
307 306 308 311 315 317 318 319 317 321 322 321 320 321 322 323 324 325 326 328 329 332 333 330 329 328 328 328 329 328 328 329 331 331 332 332 333 334 333 330 328 327 324 323 323 322 321 321 322 322 322 322 323 322
308 309 311 313 315 317 318 318 318 318 319 321 321 321 322 322 322 324 326 326 330 330 330 328 328 327 330 327 326 327 331 329 329 330 335 330 331 331 330 330 329 327 325 323 323 322 320 322 322 322 323 323 322 322
309 311 311 313 316 316 318 317 321 320 320 321 321 321 322 324 324 323 322 325 327 328 328 328 330 330 330 330 329 328 327 328 329 328 327 327 328 329 330 329 328 328 326 326 324 322 322 322 322 322 323 322 322 323
311 311 313 315 316 317 321 318 321 321 323 323 323 325 324 324 324 324 324 324 324 324 325 326 327 326 329 329 329 329 329 330 329 328 329 327 326 327 329 329 328 329 330 328 327 322 321 322 323 323 322 322 323 325
309 311 313 313 315 318 318 320 321 322 322 325 326 326 326 326 327 327 327 327 327 326 325 330 325 326 327 328 329 328 327 328 329 327 327 328 328 328 328 327 328 328 328 328 328 327 321 321 322 322 322 324 325 325
314 314 315 315 317 318 319 320 320 321 323 324 325 325 328 330 332 333 334 333 335 331 331 332 331 329 328 328 328 327 326 326 327 328 326 326 327 328 327 327 327 326 328 328 328 328 325 321 321 323 323 325 326 324
316 315 319 316 318 319 319 320 320 321 322 323 323 323 325 327 329 331 334 335 335 332 332 333 332 331 330 329 329 328 328 328 327 327 327 327 326 328 328 330 329 327 326 327 327 327 322 321 323 324 326 326 325 323
318 316 316 317 317 318 319 319 320 320 322 323 324 324 326 330 331 333 331 331 330 329 329 330 332 331 332 332 330 330 329 329 329 329 328 328 328 327 327 327 327 326 327 328 327 324 324 324 325 326 326 325 324 324
315 317 317 317 318 318 320 320 321 322 321 321 322 324 325 329 333 332 331 328 328 327 328 329 329 329 329 329 330 330 330 330 330 330 330 329 329 328 328 328 328 327 327 327 325 325 325 325 326 326 326 325 326 325
316 316 318 318 318 318 319 320 320 320 321 323 325 326 327 328 327 326 326 326 326 325 327 327 327 329 328 329 330 330 330 330 330 332 333 332 330 329 329 329 329 329 327 326 326 325 326 327 327 327 326 325 325 324
315 315 318 319 319 320 319 319 319 319 320 322 322 324 325 324 324 323 324 324 324 325 326 326 327 327 328 329 331 331 330 330 330 330 332 332 330 329 330 329 328 329 328 327 327 328 328 328 327 326 325 325 324 322
316 316 317 317 318 319 318 318 319 320 320 320 322 323 323 324 323 323 325 326 327 326 326 327 327 327 327 327 329 331 332 330 330 330 331 330 328 329 328 328 327 327 327 326 325 325 325 323 323 323 322 321 320 319
315 317 318 319 320 321 320 320 321 321 322 322 322 323 324 324 325 326 328 329 330 330 328 328 328 328 328 328 328 326 325 328 330 330 330 330 328 327 327 326 325 324 324 324 323 323 323 322 321 319 318 319 319 320
315 316 316 318 320 321 321 321 321 322 322 322 322 323 323 324 326 332 329 329 329 329 329 330 330 329 329 329 328 328 326 329 329 329 329 329 329 329 327 325 324 323 323 323 323 322 320 319 319 319 320 320 321 321
Wind_Speed
20 18 20 19 17 15 14 13 12 12 12 12 10 10 10 11 11 13 8 4 7 6 4 4 3 7 11 8 6 5 6 1 3 6 3 4 4 6 3 5 2 3 4 9 8 5 2 6 7 2 5 6 5 4
20 20 19 20 18 16 14 13 13 11 11 11 9 8 8 8 9 10 8 4 8 7 10 9 4 2 3 7 7 6 4 6 7 1 1 3 3 5 5 7 1 4 5 3 7 5 4 4 7 7 1 2 1 1
20 20 19 20 20 18 15 14 14 11 10 11 9 7 7 7 8 7 9 9 11 7 9 10 9 3 3 5 7 5 5 4 4 5 5 4 4 6 3 6 10 4 3 4 3 7 3 3 5 5 2 2 1 4
21 21 19 19 21 19 16 14 14 12 9 10 9 6 7 7 8 8 7 8 10 8 5 9 4 5 2 3 5 5 3 0 1 4 3 3 2 3 4 4 4 6 4 3 5 6 2 5 6 5 3 1 3 5
20 21 21 20 21 20 18 15 14 11 9 9 8 6 6 6 8 10 9 7 5 7 5 6 1 7 5 2 1 1 3 5 4 4 5 1 1 3 6 5 7 7 6 6 3 8 3 7 4 2 4 5 5 7
21 22 22 20 20 21 18 16 13 11 10 8 7 5 5 5 6 5 4 4 3 6 4 3 2 5 5 4 3 2 3 2 5 4 2 2 1 5 6 6 4 4 1 3 2 4 4 8 3 1 4 6 5 6
23 22 23 21 20 22 19 16 13 10 10 8 6 5 5 5 5 6 3 2 4 5 4 3 2 4 6 6 8 6 5 4 5 3 3 7 2 3 7 9 7 5 6 3 3 4 5 5 2 4 1 2 1 5
25 23 24 22 20 21 20 17 13 11 9 7 5 4 3 4 7 9 4 4 3 6 4 4 3 8 9 6 7 5 5 5 5 6 5 5 4 4 4 4 1 8 5 5 5 6 3 10 4 4 1 1 3 5
26 24 25 23 21 22 21 17 13 11 7 5 4 3 2 4 5 4 2 4 4 6 5 4 4 2 5 5 2 4 5 6 3 5 9 3 6 5 3 6 6 5 6 7 6 5 3 3 3 1 2 2 3 5
27 26 26 23 22 23 22 18 14 10 7 7 4 7 5 3 1 2 4 4 6 5 5 7 5 4 4 6 5 2 3 4 3 4 1 5 9 10 7 5 5 7 8 4 6 7 5 3 2 4 3 6 4 4
28 27 27 25 23 24 24 19 17 11 10 5 7 1 5 5 5 5 3 4 5 4 5 7 9 5 4 1 1 2 3 2 3 3 3 4 5 8 8 9 5 4 5 5 6 7 7 5 5 5 2 1 4 4
28 28 28 26 25 27 25 23 19 15 6 1 4 4 5 5 4 4 4 4 4 5 5 6 7 3 2 4 3 4 2 2 4 3 3 4 7 8 5 7 9 9 8 8 8 5 5 3 4 2 2 2 2 2
29 28 29 26 27 29 27 25 23 13 5 4 5 6 3 3 0 6 8 5 4 6 4 5 6 5 3 5 4 3 2 4 2 3 4 2 8 7 6 7 7 7 7 6 6 6 5 6 5 4 3 4 4 4
28 30 28 28 29 30 28 24 23 14 3 4 6 1 6 6 6 7 7 3 3 1 6 7 7 4 2 5 3 4 2 4 4 5 5 6 9 7 7 7 7 6 6 6 5 6 7 8 6 5 5 5 5 6
29 28 27 29 31 30 26 22 21 8 3 4 5 4 9 6 1 3 2 1 2 3 5 6 1 4 5 2 3 4 4 5 5 4 6 9 7 7 8 8 7 6 5 5 4 7 9 9 7 6 7 6 6 7
28 26 24 32 33 29 25 23 12 3 4 4 5 6 5 5 6 6 6 7 6 6 6 5 2 3 5 3 6 6 4 4 3 3 7 7 5 7 8 7 5 4 4 6 7 8 8 7 7 7 7 8 8 9
35 6 29 37 32 27 27 14 9 6 4 4 5 7 5 5 4 3 5 2 2 4 6 4 1 4 5 3 4 4 6 1 5 5 7 7 6 8 7 6 6 4 5 6 7 8 8 7 7 7 7 8 10 11
6 30 42 38 35 28 8 6 5 5 7 7 7 7 8 5 4 6 4 3 2 3 6 4 1 7 3 6 2 2 3 4 2 3 5 5 4 9 9 8 8 7 7 7 9 10 9 8 9 10 10 12 13 18
35 46 44 44 30 13 6 8 3 4 7 5 8 5 2 4 5 3 6 8 6 6 2 4 5 6 6 4 5 2 10 1 2 4 6 5 6 10 10 9 7 7 7 9 11 12 12 12 13 11 10 8 11 11
44 43 42 30 7 3 3 3 3 4 4 6 6 7 7 7 6 7 8 8 7 3 5 5 9 3 2 6 2 4 6 3 8 3 3 5 11 11 11 10 10 9 8 9 12 14 12 11 12 13 13 11 10 12
36 26 18 7 2 0 2 3 5 4 3 3 5 6 5 6 8 8 8 7 6 7 7 8 7 6 3 5 4 7 4 3 6 5 2 4 7 10 12 12 9 9 10 10 11 13 15 14 15 15 10 11 11 12
14 16 5 2 1 2 3 6 2 2 3 3 5 5 5 7 7 9 8 10 11 9 10 8 5 1 5 7 7 8 10 6 8 11 3 6 6 5 7 12 14 11 12 16 14 12 13 18 15 14 12 10 11 16
20 10 2 1 2 1 2 6 4 6 5 4 5 4 5 5 4 4 5 8 11 10 11 11 12 13 11 11 7 11 13 13 12 13 11 12 9 9 10 11 13 12 12 12 10 13 16 12 7 8 13 16 18 17
9 4 3 4 6 3 5 5 5 4 5 6 5 5 5 3 3 4 8 10 6 7 9 11 12 9 11 13 10 12 18 19 17 17 15 12 8 13 9 11 13 13 14 12 13 15 14 15 12 14 18 19 18 16
2 2 3 2 3 5 6 6 7 5 6 8 4 4 4 4 4 4 3 2 3 2 2 5 6 8 9 9 10 16 17 18 15 11 16 15 16 10 13 18 17 15 15 14 13 12 12 15 17 17 14 19 16 12
2 6 5 8 7 6 5 6 7 8 4 4 3 1 2 3 3 2 2 3 4 2 1 2 2 6 7 5 5 6 10 12 12 11 12 13 14 12 8 9 10 10 15 18 17 13 13 16 16 15 15 22 19 16
3 3 4 3 3 2 3 0 1 4 4 6 4 4 4 4 4 2 3 2 2 3 2 4 4 3 2 2 5 4 5 7 9 10 9 9 7 8 11 12 11 22 22 11 14 14 14 13 11 15 19 12 15 17
2 1 3 7 5 3 1 3 5 5 5 4 2 3 2 4 3 0 3 3 6 6 3 4 5 5 6 7 6 4 5 7 7 7 7 6 9 8 8 8 4 2 7 4 10 14 14 13 13 15 14 15 15 18
1 4 2 5 4 4 6 5 4 4 0 3 2 3 2 3 3 2 6 4 5 11 8 3 7 10 5 7 4 7 7 8 9 9 9 8 7 12 12 11 9 11 12 12 10 12 13 13 14 16 18 19 17 19
3 3 3 4 4 5 2 3 6 4 2 3 3 4 6 5 5 4 5 2 7 13 11 7 8 6 4 2 9 7 6 7 7 8 5 7 7 10 13 7 8 11 12 14 14 13 15 12 13 15 16 14 14 15
2 4 2 3 3 3 5 5 6 8 6 4 8 7 5 3 3 1 2 4 12 11 9 7 4 7 7 4 10 3 3 8 6 5 2 8 5 9 8 9 9 6 4 1 3 3 5 7 11 11 13 9 10 10
3 4 3 2 3 3 5 6 6 8 10 9 9 8 7 5 2 3 3 6 7 8 6 8 6 14 7 5 4 4 3 4 7 5 6 5 7 10 7 5 3 3 5 5 3 3 6 8 8 8 8 6 6 7
5 5 2 4 6 5 4 4 4 6 8 8 8 8 8 5 3 1 3 7 7 8 9 10 10 9 7 8 7 5 2 8 6 7 5 1 8 3 5 3 6 3 3 3 4 4 1 2 3 5 6 8 10 12
Wind_Direction
256 259 249 251 257 263 281 293 301 306 314 313 317 320 326 339 346 348 305 341 332 313 325 353 2 335 332 18 336 51 243 224 29 20 41 354 95 160 180 157 216 263 254 234 284 244 220 99 125 286 67 132 141 148
261 255 251 246 249 255 269 282 289 295 304 304 309 315 313 331 338 337 283 350 317 261 316 314 301 337 309 318 323 355 55 16 2 345 304 318 174 188 117 212 350 260 331 55 228 69 132 134 62 89 33 111 56 246
259 254 251 242 243 247 260 270 280 284 297 298 302 308 301 309 322 327 304 319 312 256 259 229 198 136 314 329 341 311 92 335 53 336 342 60 211 345 328 23 200 141 5 289 324 129 153 139 103 139 164 286 317 298
257 251 250 242 237 240 248 259 271 275 286 290 289 291 287 293 310 314 298 323 307 294 278 155 144 199 286 329 346 348 1 54 341 303 320 326 2 342 351 13 315 46 157 245 245 158 164 187 192 180 152 294 278 284
263 255 245 241 234 233 239 249 261 267 273 279 284 281 276 287 306 299 276 271 307 315 322 324 140 190 209 101 318 257 233 265 226 217 231 266 36 240 210 266 258 165 204 214 77 117 264 111 134 200 228 233 251 269
259 249 244 239 231 226 233 242 251 256 264 268 273 266 258 272 301 300 211 187 266 324 287 290 311 183 197 228 221 243 283 252 265 289 324 118 43 294 280 264 101 99 195 322 18 33 102 88 93 57 293 298 277 264
253 243 237 239 228 221 227 233 242 245 253 261 259 249 256 272 279 279 350 11 319 305 254 264 271 177 209 223 221 230 208 252 285 297 288 277 150 208 267 271 146 179 167 151 91 178 157 187 161 116 339 320 180 260
248 242 235 234 226 217 221 225 230 233 242 251 231 229 252 280 280 255 223 256 286 266 267 270 180 217 178 220 223 217 254 222 226 254 228 250 200 227 261 278 302 151 150 149 189 221 318 96 133 156 128 298 252 240
240 237 231 228 220 213 214 215 216 221 230 218 192 187 234 219 236 92 201 230 244 280 301 253 260 89 181 211 127 224 249 237 206 241 241 213 250 215 212 248 230 169 179 206 190 225 181 197 175 234 267 273 259 256
235 231 225 221 214 207 208 203 202 203 195 171 169 207 189 89 144 126 193 207 196 202 223 261 276 221 188 181 200 206 214 240 252 211 124 235 250 264 195 238 216 183 200 195 190 196 214 227 226 256 283 319 305 261
228 224 218 214 208 202 199 193 188 178 156 198 211 181 91 143 200 214 231 233 187 226 208 227 252 236 149 161 77 125 288 224 251 172 241 235 230 175 214 213 165 176 209 240 210 225 224 217 205 217 242 277 278 259
221 218 211 207 202 197 190 187 175 167 185 230 49 102 159 206 222 221 209 213 245 233 155 215 204 184 210 139 150 259 229 248 255 89 238 248 108 122 162 204 184 204 219 226 206 217 268 237 195 209 251 208 237 245
211 209 205 200 197 191 186 183 178 183 184 181 221 184 200 177 188 220 198 207 219 174 170 198 184 174 137 227 107 262 231 253 53 225 230 59 110 125 139 153 169 177 180 205 207 229 222 223 190 237 212 213 222 224
201 200 198 196 190 184 182 179 177 176 195 231 173 210 215 189 228 214 232 234 96 241 159 194 184 179 199 190 211 197 230 213 248 239 215 139 120 138 161 156 167 179 194 201 220 232 215 198 205 223 241 231 224 236
194 192 192 190 181 175 175 174 169 170 257 243 202 230 207 249 327 308 328 43 168 263 188 132 343 190 181 173 232 220 207 235 213 240 85 99 128 156 174 179 181 186 205 233 232 204 193 203 202 222 243 223 227 245
181 177 175 176 169 168 166 156 159 193 244 232 229 230 246 273 230 181 202 220 159 210 203 143 195 189 206 201 209 217 222 240 166 125 79 109 123 164 175 183 183 212 218 244 210 206 201 201 229 244 213 227 230 238
160 132 170 164 159 155 148 147 176 206 232 231 216 235 241 295 307 331 191 141 198 221 207 124 82 219 184 216 263 231 217 74 95 98 90 90 163 176 181 191 184 205 225 229 211 206 201 207 222 211 213 230 250 259
129 155 156 153 147 144 162 190 210 210 216 223 238 224 209 229 267 208 214 193 128 230 227 239 5 218 215 210 257 300 279 105 111 68 60 99 190 184 188 190 194 207 212 214 204 196 201 211 209 220 223 239 249 252
154 152 152 148 146 162 152 176 238 235 216 230 227 277 264 240 226 232 201 205 215 212 190 287 220 207 232 268 174 66 299 119 110 192 139 137 178 188 193 192 195 206 218 211 208 209 210 216 242 249 246 248 265 288
147 147 150 158 177 157 125 116 203 259 234 206 223 229 219 231 229 214 217 221 195 188 214 231 239 245 238 212 100 296 267 99 268 224 241 178 173 186 194 200 202 190 217 215 217 231 230 231 224 229 241 262 308 298
136 153 152 146 152 349 99 173 198 237 232 228 199 209 221 210 230 232 234 213 221 211 230 243 258 260 321 332 337 332 348 293 294 282 156 172 190 206 180 201 203 206 218 227 220 206 219 246 230 233 246 245 277 296
136 135 122 58 134 144 237 194 332 108 238 253 186 209 243 213 219 221 224 235 231 230 232 248 253 268 231 225 238 231 255 276 242 271 255 263 257 222 205 199 205 212 222 239 232 233 216 212 230 244 259 271 285 288
124 121 54 329 148 124 209 171 205 190 214 208 184 208 216 223 230 165 218 229 239 239 239 247 247 248 266 279 241 227 230 235 250 243 232 234 252 258 194 217 238 219 236 222 227 238 241 241 228 257 269 266 266 277
93 99 177 208 192 206 156 195 210 222 196 218 199 220 224 189 129 216 239 236 221 197 215 222 235 233 230 232 249 244 236 229 237 248 243 235 228 231 239 251 215 239 237 240 245 230 226 239 237 249 252 263 271 277
105 181 144 289 266 209 194 189 201 210 218 208 205 230 166 147 210 227 230 179 339 266 141 183 220 223 232 231 220 220 223 239 237 232 237 237 239 231 226 249 258 229 231 231 234 246 248 227 240 251 269 274 280 292
157 188 208 194 174 212 189 187 196 204 218 181 232 289 244 257 250 214 136 174 187 217 352 328 275 208 206 237 262 245 205 207 233 241 248 241 222 214 201 219 237 250 255 246 250 231 223 227 235 249 263 273 268 253
209 164 185 249 271 178 233 190 153 198 203 198 229 206 191 227 224 127 102 82 52 58 341 263 291 245 263 228 218 240 268 227 215 239 248 238 239 235 226 201 209 233 237 218 213 224 234 242 255 270 267 293 303 296
20 13 185 176 205 188 280 190 190 204 218 217 206 245 269 21 55 326 214 56 340 350 330 246 224 259 274 284 274 239 223 239 210 222 242 243 236 229 227 245 253 262 270 210 211 222 233 254 271 286 301 305 307 308
224 158 206 192 177 193 204 204 238 210 5 339 293 347 21 113 137 252 291 298 317 314 304 290 317 257 243 231 215 253 218 201 200 190 224 251 239 212 216 226 234 217 218 226 228 248 260 273 291 301 301 299 294 291
194 201 222 214 213 218 214 232 248 274 167 155 256 230 238 201 187 209 287 272 323 298 301 296 282 281 220 343 253 218 198 215 221 202 226 239 207 219 205 181 198 199 200 217 234 219 209 231 261 261 256 261 290 339
225 200 227 242 244 232 231 252 263 297 269 219 248 249 263 293 311 225 136 259 277 277 271 285 28 302 312 9 294 212 11 250 178 244 273 332 214 196 163 154 176 187 182 220 267 283 159 282 308 341 331 341 332 323
220 217 221 236 290 328 275 221 224 238 235 213 223 229 229 221 240 147 54 338 320 340 25 309 320 342 268 248 296 70 33 39 138 170 201 239 122 116 140 162 111 85 216 224 269 342 6 328 342 355 341 350 341 329
240 247 283 285 254 239 236 231 246 248 224 221 226 224 211 202 110 50 76 38 358 334 339 332 314 314 354 315 352 28 53 73 102 130 161 56 67 108 323 207 132 184 190 291 333 336 106 26 358 348 337 332 328 327